map of MVR home
Great Circle Mapper logo
MVR - Airport
Location
City:  Maroua, Cameroon
Name:Salak
ICAO / IATA:FKKL / MVR

Details
Type:Airport (Aerodrome, Airfield)
Use:Public/Civil, International (customs port of entry)
Latitude:1027'05"N (10.451392)
Longitude:1415'26"E (14.257361)
Datum:WGS 1984
Elevation:1390 ft (424 m)
Variation:0.5E (WMM2015 magnetic declination)
Runways:1
Longest:6890 × 148 ft (2100 × 45 m), paved

Time
Time Zone:UTC+1
Local Time:

Weather
METAR:FKKL 220700Z 01007KT 3400 HZ NSC 21/03 Q1016

Related Locations
Nearby:
Farthest:MHX: 12127 mi / 19517 km
Manihiki Island (Manuhiki, Tapuahua, Humphrey Island), CK

Find:

   beyond  
but within

Other Information
Maps:
NOTAMs:
Links:
Sources:

  
flag of Cameroon   

Sectional Chart

Flight Planning
at skyvector.com

Satellite Image

Google Maps Satellite View

 

Copyright © 2004-2014 Karl L. Swartz. All rights reserved.
The Great Circle Mapper name and logo are trademarks of the Great Circle Mapper.
All other trademarks mentioned herein belong to their respective owners.
Please see credits for attibutions and further copyright information.

  Follow gcmap on Facebook Follow gcmap on Twitter

hCard Microformat

Geo Microformat